Erie, CO

9:08 AM MDT on April 29, 2017 (GMT -0600)
Erie Municipal Airport

Weather History for KEIK - March, 2013

Change the Weather History Date:

Wednesday, March 6, 2013

  Actual Average (KBJC) Record (KBJC)
Temperature  
Mean Temperature 39 °F -  
Max Temperature 59 °F 47 °F 71 °F (2012)
Min Temperature 19 °F 26 °F 3 °F (1985)
Degree Days  
Heating Degree Days 26    
Moisture  
Dew Point 24 °F    
Average Humidity 70    
Maximum Humidity 96    
Minimum Humidity 15    
Precipitation  
Precipitation 0.00 in - - ()
Sea Level Pressure  
Sea Level Pressure 29.96 in    
Wind  
Wind Speed 2 mph (ESE)    
Max Wind Speed 13 mph    
Max Gust Speed -    
Visibility 10 miles    
Events      
Averages and records for this station are not official NWS values.
T = Trace of Precipitation, MM = Missing Value Source: NWS Daily Summary

Daily Weather History Graph

Daily Weather History Graph

Search for Another Location

Airport or City:

Trip Planner

Search our weather history database for the weather conditions in past years. The results will help you decide how hot, cold, wet, or windy it might be!

Date:

Astronomy

Mar. 06, 2013 Rise Set
Actual Time 6:25 AM MST 5:57 PM MST
Civil Twilight 5:58 AM MST 6:24 PM MST
Nautical Twilight 5:27 AM MST 6:56 PM MST
Astronomical Twilight 4:55 AM MST 7:27 PM MST
Moon 2:36 AM MST (3/6) 12:42 PM MST (3/6)
Length of Visible Light 12h 26m
Length of Day
11h 32m
Waning Crescent, 29% of the Moon is Illuminated
Mar 6
Waning Crescent
Mar 11
New
Mar 19
First Quarter
Mar 27
Full
Apr 2
Last Quarter

Hourly Weather History & Observations

Time (MST) Temp. Windchill Dew Point Humidity Pressure Visibility Wind Dir Wind Speed Gust Speed Precip Events Conditions
12:10 AM 23.4 °F - 21.9 °F 94% 30.12 in 10.0 mi Calm Calm - N/A   Clear
12:32 AM 23.9 °F 19.5 °F 21.2 °F 89% 30.12 in 10.0 mi SSW 3.5 mph - N/A   Clear
12:50 AM 23.0 °F 18.4 °F 21.0 °F 92% 30.11 in 10.0 mi SSW 3.5 mph - N/A   Clear
1:10 AM 23.0 °F - 20.8 °F 91% 30.11 in 10.0 mi Calm Calm - N/A   Clear
1:31 AM 24.1 °F - 21.0 °F 88% 30.11 in 10.0 mi Calm Calm - N/A   Clear
1:50 AM 22.5 °F 17.8 °F 19.9 °F 90% 30.10 in 10.0 mi SSW 3.5 mph - N/A   Clear
2:11 AM 22.8 °F - 20.3 °F 90% 30.09 in 10.0 mi Calm Calm - N/A   Clear
2:30 AM 22.1 °F - 19.9 °F 91% 30.09 in 10.0 mi Calm Calm - N/A   Clear
2:50 AM 21.7 °F - 19.4 °F 91% 30.07 in 10.0 mi Calm Calm - N/A   Clear
3:10 AM 21.7 °F - 19.8 °F 92% 30.06 in 10.0 mi Calm Calm - N/A   Clear
3:31 AM 22.1 °F - 20.1 °F 92% 30.06 in 10.0 mi Calm Calm - N/A   Clear
3:50 AM 21.6 °F - 19.6 °F 92% 30.06 in 10.0 mi Calm Calm - N/A   Clear
4:11 AM 21.2 °F - 19.2 °F 92% 30.06 in 10.0 mi Calm Calm - N/A   Clear
4:30 AM 21.0 °F - 19.4 °F 93% 30.05 in 10.0 mi Calm Calm - N/A   Clear
5:11 AM 20.1 °F - 18.9 °F 95% 30.05 in 10.0 mi Calm Calm - N/A   Clear
5:30 AM 19.9 °F - 18.3 °F 93% 30.05 in 10.0 mi Calm Calm - N/A   Clear
5:50 AM 19.4 °F - 17.6 °F 93% 30.05 in 10.0 mi Calm Calm - N/A   Clear
6:11 AM 19.0 °F - 17.4 °F 93% 30.04 in 10.0 mi Calm Calm - N/A   Clear
6:29 AM 19.2 °F - 17.6 °F 93% 30.03 in 10.0 mi Calm Calm - N/A   Clear
6:50 AM 19.2 °F - 17.6 °F 93% 30.03 in 10.0 mi Calm Calm - N/A   Clear
7:11 AM 21.2 °F 16.4 °F 20.1 °F 96% 30.03 in 7.0 mi SW 3.5 mph - N/A   Clear
7:31 AM 23.0 °F - 21.7 °F 95% 30.03 in 10.0 mi Calm Calm - N/A   Clear
7:49 AM 25.0 °F - 23.2 °F 93% 30.03 in 10.0 mi Calm Calm - N/A   Clear
8:10 AM 26.6 °F - 23.4 °F 88% 30.03 in 10.0 mi Calm Calm - N/A   Clear
8:30 AM 28.9 °F - 24.3 °F 83% 30.03 in 10.0 mi Calm Calm - N/A   Clear
8:49 AM 30.6 °F - 25.2 °F 80% 30.03 in 10.0 mi Calm Calm - N/A   Clear
9:11 AM 31.6 °F - 25.5 °F 78% 30.03 in 10.0 mi Calm Calm - N/A   Clear
9:30 AM 33.1 °F - 26.1 °F 75% 30.02 in 10.0 mi Calm Calm - N/A   Clear
9:51 AM 33.6 °F - 26.4 °F 75% 30.01 in 10.0 mi Calm Calm - N/A   Clear
10:11 AM 35.6 °F - 26.4 °F 69% 30.01 in 10.0 mi Calm Calm - N/A   Clear
10:30 AM 36.5 °F 33.9 °F 27.3 °F 69% 30.00 in 10.0 mi NE 3.5 mph - N/A   Clear
10:50 AM 37.6 °F - 26.6 °F 65% 30.00 in 10.0 mi Calm Calm - N/A   Clear
11:09 AM 39.2 °F 35.9 °F 28.9 °F 67% 29.99 in 10.0 mi ESE 4.6 mph - N/A   Clear
11:30 AM 40.8 °F - 28.2 °F 61% 29.98 in 10.0 mi Calm Calm - N/A   Clear
11:50 AM 42.4 °F 39.6 °F 27.3 °F 55% 29.97 in 10.0 mi East 4.6 mph - N/A   Clear
12:11 PM 44.6 °F - 28.8 °F 54% 29.96 in 10.0 mi Calm Calm - N/A   Clear
12:30 PM 45.7 °F - 28.8 °F 52% 29.94 in 10.0 mi Calm Calm - N/A   Clear
12:51 PM 48.2 °F - 29.3 °F 48% 29.93 in 10.0 mi West 4.6 mph - N/A   Clear
1:11 PM 48.9 °F - 28.0 °F 44% 29.91 in 10.0 mi Calm Calm - N/A   Clear
1:31 PM 51.3 °F - 25.3 °F 37% 29.90 in 10.0 mi Calm Calm - N/A   Clear
1:51 PM 52.5 °F - 27.0 °F 37% 29.90 in 10.0 mi NE 3.5 mph - N/A   Clear
2:11 PM 53.8 °F - 27.9 °F 37% 29.89 in 10.0 mi NE 4.6 mph - N/A   Clear
2:31 PM 54.9 °F - 27.7 °F 35% 29.87 in 10.0 mi ENE 4.6 mph - N/A   Clear
2:51 PM 56.3 °F - 27.5 °F 33% 29.86 in 10.0 mi ESE 3.5 mph - N/A   Clear
3:11 PM 57.0 °F - 28.0 °F 33% 29.85 in 10.0 mi NE 6.9 mph - N/A   Clear
3:31 PM 58.1 °F - 14.2 °F 18% 29.85 in 10.0 mi East 10.4 mph - N/A   Clear
3:51 PM 59.9 °F - 12.9 °F 16% 29.85 in 10.0 mi ESE 12.7 mph - N/A   Clear
4:10 PM 59.2 °F - 11.5 °F 15% 29.84 in 10.0 mi SE 10.4 mph - N/A   Clear
4:30 PM 58.5 °F - 12.7 °F 17% 29.84 in 10.0 mi SE 10.4 mph - N/A   Clear
4:50 PM 57.2 °F - 14.0 °F 18% 29.83 in 10.0 mi ESE 10.4 mph - N/A   Clear
5:09 PM 55.6 °F - 18.5 °F 23% 29.83 in 10.0 mi East 8.1 mph - N/A   Clear
5:30 PM 54.0 °F - 20.5 °F 27% 29.83 in 10.0 mi Calm Calm - N/A   Clear
5:49 PM 50.7 °F - 22.6 °F 33% 29.83 in 10.0 mi Calm Calm - N/A   Clear
6:10 PM 44.1 °F 40.8 °F 26.8 °F 51% 29.84 in 10.0 mi NE 5.8 mph - N/A   Clear
6:30 PM 42.8 °F - 28.4 °F 57% 29.84 in 10.0 mi Calm Calm - N/A   Clear
6:50 PM 42.3 °F - 28.8 °F 59% 29.84 in 10.0 mi Calm Calm - N/A   Clear
7:30 PM 36.9 °F - 30.0 °F 76% 29.84 in 10.0 mi Calm Calm - N/A   Clear
7:49 PM 36.7 °F - 30.2 °F 77% 29.84 in 10.0 mi Calm Calm - N/A   Clear
8:29 PM 34.5 °F - 29.7 °F 82% 29.85 in 10.0 mi Calm Calm - N/A   Clear
8:50 PM 32.5 °F 29.3 °F 29.1 °F 87% 29.85 in 10.0 mi SSW 3.5 mph - N/A   Clear
9:10 PM 32.0 °F 27.5 °F 29.1 °F 89% 29.85 in 10.0 mi South 4.6 mph - N/A   Clear
9:31 PM 31.6 °F - 28.4 °F 88% 29.85 in 10.0 mi Calm Calm - N/A   Clear
9:50 PM 31.8 °F - 28.8 °F 88% 29.84 in 10.0 mi Calm Calm - N/A   Clear
10:10 PM 31.6 °F - 28.4 °F 88% 29.85 in 10.0 mi Calm Calm - N/A   Clear
10:30 PM 30.7 °F - 27.9 °F 89% 29.84 in 10.0 mi Calm Calm - N/A   Clear
11:10 PM 29.8 °F - 27.3 °F 90% 29.85 in 10.0 mi Calm Calm - N/A   Clear
11:31 PM 30.2 °F - 27.5 °F 90% 29.85 in 10.0 mi Calm Calm - N/A   Clear
11:49 PM 28.8 °F - 26.6 °F 92% 29.86 in 10.0 mi Calm Calm - N/A   Clear